OBJECT A, 65550

Orbit data source: Space-Track

You're viewing an Uncataloged Satellite

Recently launched and/or uncataloged satellites may have evolving metadata. Metadata may include but not limited to: Owner, Maufacturer, Bus, Motor, and Mission.

OBJECT A, 65550 is a satellite owned by GeeSpace (CN) in LEO that was launched on Mon, 08 Sep 2025 UTC via a JIELONG-3 launch vehicle from the Yellow Sea Launch Area, China (YSLA). Unknown objects in Earth's orbit typically refer to objects detected orbiting the Earth but have not yet been identified or cataloged. These objects could be anything from previously untracked satellites, spent rocket stages, debris from satellite collisions, or even natural meteoroids temporarily captured by Earth's gravity.

Loading next visibility...
Identifier
65550, 2025-201A
Orbit
LEO
Country
Flag of CNCN / PRC
Related business
None
Manufacturer
Taizhou Xingkong
Mission
Operational spacecraft
Bus & Motor
GEESAT1, Unknown motor
Mass
130 kg wet, 130 kg dry
Launch date (UTC)
2025-09-08 (1 week ago)
Launch vehicle
JIELONG-3
Launch site
Yellow Sea Launch Area, China (YSLA)
Object type
Unknown
Shape & HBR
Unknown
Radar Cross Section
Medium (>0.1 m² and <1 m²)

Expand to show TLE details & history
Last TLE update: 2 days ago

TLE from 2 days ago
0 OBJECT A
1 65550U 25201A   25258.31723140  .00000687  00000-0  11044-3 0  9998
2 65550  49.9886 234.9363 0005414 308.8619  51.1835 14.83262875   971
Epoch: 2025-09-15T07:36Z
TLE epoch observation values (Epoch: 2025-09-15T07:36:48.792Z)
Latitude
-0.00008°
Longitude
126.20931°
Altitude
617.213 km
Speed
7.553 km/s
True Right ascension
15h 39m 44s
True Declination
0° 00' 00"
Sunlit
Object was in daylight at epoch
Visualization orbit readout
Latitude
Unknown
Longitude
Unknown
Altitude
Unknown
Speed
Unknown
Apparent Right ascension
Unknown
Apparent Declination
Unknown
Sunlit
N/A
Visualization observer readout
Local Sidereal Time
03:03:18
Azimuth
Unknown
Elevation
Unknown
Doppler factor
Unknown
Orbital elements
Apogee altitude
623.592 km
Perigee altitude
616.015 km
Semi-major axis
6,997.941 km
Eccentricity
0.00054
Inclination
49.9886°
RAAN
234.9363°
Arg. of periapsis
308.8619°
True anomaly
51.23186°
Mean anomaly
51.1835°
Eccentric anomaly
51.20768°
Mean motion
3.70756 °/min
Orbital period
97.1 mins
BSTAR
0.00011044
Loading maneuver chart data...
Computing Atmospheric mass density...
Loading historical data...
Loading historical data...
Loading historical data...
Loading historical data...
Loading historical data...
Loading historical data...
Loading historical data...

Documentation

Showing up to 5 results
|